"period end","wind dir","wind speed [m/s]","friction velocity [m/s]","avg(u) [m/s]","avg(v) [m/s]","avg(w) [m/s]","avg(Ts) [C]","<u'u'>","<v'v'>","<w'w'>","<Ts'Ts'>","w'Ts'","# data rec","# filt. data rec","buoyancy flux: B [W m-2]","momentum flux: FM [N m-2]","inverse Obukhov length: L-1 [m-1]","ustar2 [?]","phi","psi"
2016-01-01 00:00,234,10.073,0.202,-5.919,8.110,0.480,-18.310,3.614e-01,3.519e-01,7.739e-02,9.282e-02,-2.220e-02,6000,0,-3.050e+01,-5.606e-02,4.117e-02,0.170,4.778e-02,
2016-01-01 00:10,237,10.071,0.204,-5.477,8.411,0.443,-18.064,6.415e-01,2.602e-01,5.729e-02,6.602e-02,-1.321e-02,6000,0,-1.813e+01,-5.694e-02,2.387e-02,0.097,4.415e-02,
2016-01-01 00:20,237,11.244,0.207,-6.066,9.434,0.524,-18.265,1.986e-01,3.805e-01,6.334e-02,9.409e-02,-1.402e-02,6001,0,-1.926e+01,-5.866e-02,2.428e-02,0.172,4.664e-02,
2016-01-01 00:30,239,11.867,0.226,-6.078,10.151,0.539,-18.494,3.359e-01,4.696e-01,9.022e-02,4.977e-02,-1.717e-02,6000,0,-2.361e+01,-7.012e-02,2.280e-02,0.213,4.555e-02,
2016-01-01 00:40,237,10.450,0.362,-5.641,8.750,0.474,-18.014,5.398e-01,5.484e-01,1.548e-01,7.945e-02,-2.990e-02,6000,0,-4.104e+01,-1.785e-01,9.731e-03,0.350,4.554e-02,
2016-01-01 00:50,238,8.396,0.241,-4.483,7.054,0.344,-17.956,8.127e-01,6.146e-01,1.161e-01,2.967e-02,-1.480e-02,6000,0,-2.031e+01,-7.918e-02,1.630e-02,0.235,4.112e-02,
2016-01-01 01:00,240,6.376,0.186,-3.150,5.492,0.325,-18.111,3.987e-01,3.553e-01,1.270e-01,4.419e-02,-1.920e-02,6000,0,-2.636e+01,-4.747e-02,4.562e-02,0.186,5.127e-02,
2016-01-01 01:10,238,7.547,0.189,-4.005,6.360,0.233,-17.959,5.060e-01,5.471e-01,8.619e-02,6.927e-02,-1.991e-02,6000,0,-2.732e+01,-4.869e-02,4.547e-02,0.188,3.099e-02,
2016-01-01 01:20,240,7.666,0.197,-3.861,6.567,0.294,-17.513,1.015e+00,8.988e-01,1.444e-01,3.637e-02,-1.718e-02,6001,0,-2.353e+01,-5.311e-02,3.428e-02,0.194,3.856e-02,
2016-01-01 01:30,232,8.541,0.234,-5.261,6.641,0.403,-17.986,1.095e+00,4.883e-01,1.120e-01,1.272e-01,-5.000e-03,6000,0,-6.862e+00,-7.480e-02,5.998e-03,0.231,4.753e-02,
2016-01-01 01:40,239,9.267,0.233,-4.770,7.896,0.453,-18.367,5.096e-01,4.923e-01,9.648e-02,3.269e-02,-1.395e-02,6000,0,-1.917e+01,-7.397e-02,1.708e-02,0.219,4.902e-02,
2016-01-01 01:50,249,9.970,0.169,-3.638,9.240,0.580,-18.314,3.118e-01,1.728e+00,1.405e-01,6.837e-02,-8.597e-03,6000,0,-1.181e+01,-3.910e-02,2.738e-02,0.088,5.837e-02,
2016-01-01 02:00,251,11.586,0.361,-3.834,10.874,0.701,-17.951,5.782e-01,9.978e-01,2.867e-01,7.402e-02,-1.107e-02,6000,0,-1.520e+01,-1.779e-01,3.622e-03,0.291,6.077e-02,
2016-01-01 02:10,248,11.690,,-4.378,10.786,0.733,-17.621,2.453e-01,1.365e+00,1.159e-01,8.637e-02,9.530e-03,6000,0,1.306e+01,,,,6.286e-02,
2016-01-01 02:20,244,9.891,0.187,-4.337,8.864,0.504,-17.905,2.162e-01,2.059e-01,5.760e-02,3.815e-02,-1.593e-02,6001,0,-2.185e+01,-4.764e-02,3.756e-02,0.172,5.100e-02,
2016-01-01 02:30,243,7.789,0.093,-3.559,6.904,0.305,-17.955,2.384e-01,6.609e-01,4.378e-02,4.347e-02,-1.354e-02,6000,0,-1.858e+01,-1.185e-02,2.577e-01,0.044,3.928e-02,
2016-01-01 02:40,236,5.680,0.211,-3.135,4.661,0.183,-17.905,6.289e-01,3.606e-01,8.131e-02,2.667e-02,-1.047e-02,6000,0,-1.437e+01,-6.069e-02,1.717e-02,0.160,3.262e-02,
2016-01-01 02:50,236,6.878,0.300,-3.791,5.638,0.306,-17.802,1.178e+00,9.308e-01,1.836e-01,3.588e-02,-1.751e-02,6000,0,-2.402e+01,-1.228e-01,9.970e-03,0.300,4.501e-02,
2016-01-01 03:00,236,6.411,0.243,-3.568,5.261,0.201,-17.731,5.892e-01,6.761e-01,1.717e-01,3.816e-02,-1.271e-02,6000,0,-1.742e+01,-8.088e-02,1.352e-02,0.237,3.154e-02,
2016-01-01 03:10,224,7.659,0.143,-5.417,5.239,0.319,-17.219,1.869e+00,1.216e+00,1.900e-01,3.455e-02,-1.559e-02,6000,0,-2.134e+01,-2.766e-02,8.255e-02,0.128,4.227e-02,
2016-01-01 03:20,229,9.553,0.355,-6.106,7.116,0.426,-17.554,2.032e+00,3.123e+00,2.273e-01,9.648e-02,-1.388e-02,6001,0,-1.902e+01,-1.714e-01,4.780e-03,0.329,4.544e-02,
2016-01-01 03:30,240,11.300,0.341,-5.640,9.720,0.545,-17.738,9.461e-01,7.320e-01,2.241e-01,3.581e-02,-1.225e-02,6000,0,-1.679e+01,-1.590e-01,4.729e-03,0.338,4.847e-02,
2016-01-01 03:40,243,10.135,0.392,-4.504,9.023,0.502,-17.814,1.088e+00,1.490e+00,2.056e-01,2.333e-02,-1.533e-02,5999,0,-2.103e+01,-2.093e-01,3.924e-03,0.391,4.977e-02,
2016-01-01 03:50,245,9.921,0.313,-4.122,8.944,0.490,-17.732,1.504e+00,1.783e+00,3.054e-01,2.110e-02,-1.137e-02,6000,0,-1.559e+01,-1.339e-01,5.683e-03,0.217,4.976e-02,
2016-01-01 04:00,245,11.644,0.330,-4.810,10.525,0.704,-17.867,9.023e-01,1.078e+00,2.943e-01,3.111e-02,-1.636e-02,5999,0,-2.244e+01,-1.491e-01,6.965e-03,0.301,6.074e-02,
2016-01-01 04:10,245,10.919,0.287,-4.509,9.847,0.611,-17.688,1.132e+00,1.226e+00,4.081e-01,3.604e-02,-2.054e-02,5996,0,-2.816e+01,-1.125e-01,1.333e-02,0.277,5.633e-02,
2016-01-01 04:20,244,10.648,0.365,-4.566,9.520,0.627,-17.589,9.394e-01,1.520e+00,4.769e-01,4.263e-02,-4.747e-03,5996,0,-6.504e+00,-1.821e-01,1.493e-03,0.358,5.930e-02,
2016-01-01 04:30,246,9.967,0.504,-4.060,8.934,0.681,-17.591,2.382e+00,1.778e+00,6.298e-01,5.602e-02,-3.035e-02,5995,0,-4.159e+01,-3.463e-01,3.641e-03,0.497,6.927e-02,
2016-01-01 04:40,241,10.281,0.306,-4.971,8.907,0.468,-17.455,1.367e+00,9.197e-01,2.597e-01,3.230e-02,-7.502e-03,5986,0,-1.027e+01,-1.273e-01,4.030e-03,0.306,4.589e-02,
2016-01-01 04:50,238,11.222,0.337,-5.838,9.481,0.538,-17.203,2.148e+00,1.108e+00,3.134e-01,5.478e-02,8.028e-05,5990,0,1.098e-01,-1.543e-01,-3.227e-05,0.326,4.831e-02,
2016-01-01 05:00,250,10.531,0.438,-3.600,9.781,0.655,-16.700,1.570e+00,1.941e+00,4.946e-01,6.912e-02,-4.146e-03,5995,0,-5.662e+00,-2.604e-01,7.562e-04,0.435,6.280e-02,
2016-01-01 05:10,259,10.603,0.266,-1.942,10.276,0.699,-16.337,2.061e+00,2.830e+00,6.050e-01,1.430e-01,-2.215e-02,5994,0,-3.020e+01,-9.575e-02,1.805e-02,0.233,6.679e-02,
2016-01-01 05:20,260,10.763,0.444,-1.922,10.395,0.797,-15.989,2.571e+00,5.192e+00,7.552e-01,2.520e-01,-3.347e-02,5983,1,-4.557e+01,-2.675e-01,5.822e-03,0.411,7.525e-02,
2016-01-01 05:30,258,10.086,,-2.052,9.507,0.649,-15.743,4.548e+00,4.717e+00,1.001e+00,3.315e-01,-6.443e-03,5993,0,-8.766e+00,,,,6.660e-02,
2016-01-01 05:40,252,7.390,0.680,-2.149,6.747,0.424,-15.998,3.127e+00,4.693e+00,6.655e-01,1.705e-01,-4.049e-02,5992,0,-5.514e+01,-6.266e-01,1.965e-03,0.639,5.982e-02,
2016-01-01 05:50,246,11.148,0.446,-4.535,10.027,0.545,-16.316,2.498e+00,2.513e+00,6.091e-01,1.489e-01,-1.713e-02,5992,0,-2.335e+01,-2.697e-01,2.952e-03,0.440,4.952e-02,
2016-01-01 06:00,240,12.125,0.180,-5.999,10.375,0.458,-16.243,1.897e+00,2.849e+00,4.870e-01,1.270e-01,-6.112e-02,5995,0,-8.332e+01,-4.402e-02,1.597e-01,0.176,3.817e-02,
2016-01-01 06:10,235,13.456,0.534,-7.747,10.886,0.636,-16.657,1.756e+00,1.929e+00,4.691e-01,4.612e-02,-4.680e-03,5987,0,-6.389e+00,-3.879e-01,4.693e-04,0.531,4.755e-02,
2016-01-01 06:20,233,14.964,0.608,-8.966,11.865,0.770,-17.100,1.539e+00,1.945e+00,5.236e-01,4.156e-02,-8.970e-03,5957,0,-1.227e+01,-5.027e-01,6.123e-04,0.603,5.173e-02,
2016-01-01 06:30,235,16.556,0.554,-9.402,13.525,0.807,-17.297,1.657e+00,1.794e+00,5.083e-01,4.937e-02,-6.799e-03,5940,2,-9.306e+00,-4.174e-01,6.146e-04,0.533,4.897e-02,
2016-01-01 06:40,237,17.488,0.636,-9.416,14.639,0.909,-17.303,1.693e+00,2.084e+00,5.008e-01,5.792e-02,-1.634e-03,5867,1,-2.237e+00,-5.501e-01,9.765e-05,0.614,5.219e-02,
2016-01-01 06:50,234,17.167,0.614,-10.000,13.846,0.833,-17.312,1.636e+00,2.420e+00,5.283e-01,4.756e-02,-6.546e-03,5935,0,-8.960e+00,-5.128e-01,4.345e-04,0.594,4.874e-02,
2016-01-01 07:00,236,18.047,0.551,-10.100,14.855,0.889,-17.373,1.664e+00,2.285e+00,5.492e-01,5.299e-02,8.421e-04,5906,0,1.153e+00,-4.141e-01,-7.708e-05,0.498,4.945e-02,
2016-01-01 07:10,239,17.227,0.583,-8.713,14.767,0.884,-17.333,1.611e+00,1.859e+00,5.325e-01,5.778e-02,-8.614e-03,5943,0,-1.179e+01,-4.636e-01,6.655e-04,0.548,5.153e-02,
2016-01-01 07:20,242,16.247,0.606,-7.483,14.295,0.885,-17.119,2.206e+00,2.135e+00,6.948e-01,8.193e-02,-2.709e-02,5937,0,-3.706e+01,-4.999e-01,1.865e-03,0.595,5.477e-02,
2016-01-01 07:30,252,15.173,0.549,-4.746,14.267,1.051,-16.859,2.196e+00,2.390e+00,1.180e+00,5.720e-02,-2.834e-02,5933,0,-3.872e+01,-4.095e-01,2.624e-03,0.512,6.979e-02,
2016-01-01 07:40,254,12.946,0.399,-3.604,12.313,0.867,-16.659,1.594e+00,2.806e+00,8.733e-01,5.024e-02,-2.380e-02,5989,0,-3.250e+01,-2.164e-01,5.730e-03,0.288,6.748e-02,
2016-01-01 07:50,249,10.391,0.249,-3.667,9.603,0.603,-16.419,1.457e+00,2.585e+00,5.728e-01,2.478e-02,-3.614e-04,5999,0,-4.930e-01,-8.391e-02,3.594e-04,0.225,5.861e-02,
2016-01-01 08:00,243,8.385,0.269,-3.769,7.256,0.364,-16.184,1.544e+00,4.506e+00,7.896e-01,3.624e-02,-1.802e-02,5995,0,-2.456e+01,-9.795e-02,1.418e-02,0.267,4.446e-02,
2016-01-01 09:20,256,16.026,0.883,-3.846,15.337,1.193,-16.305,3.204e+00,4.651e+00,1.651e+00,6.560e-02,1.273e-02,5645,0,1.735e+01,-1.057e+00,-2.827e-04,0.813,7.531e-02,
2016-01-01 10:10,249,20.122,,-7.159,18.674,1.126,-16.256,2.285e+00,1.983e+00,1.662e+00,1.384e-01,-5.193e-02,5732,0,-7.079e+01,,,,5.624e-02,
2016-01-01 10:30,245,19.837,0.587,-8.206,17.966,1.169,-16.492,1.179e+00,2.601e+00,7.649e-01,9.864e-02,-2.498e-02,5820,0,-3.409e+01,-4.684e-01,1.885e-03,0.549,5.912e-02,
2016-01-01 10:40,247,18.786,0.664,-7.202,17.245,1.022,-16.242,1.702e+00,2.633e+00,1.089e+00,9.863e-02,-4.638e-02,5789,0,-6.321e+01,-5.986e-01,2.416e-03,0.390,5.464e-02,
2016-01-01 10:50,245,19.504,0.544,-8.218,17.592,1.161,-16.363,1.314e+00,1.795e+00,6.412e-01,9.800e-02,-1.491e-02,5916,0,-2.034e+01,-4.019e-01,1.414e-03,0.509,5.972e-02,
2016-01-01 11:00,244,18.568,0.446,-8.176,16.601,0.946,-16.314,9.652e-01,1.862e+00,5.206e-01,1.010e-01,-1.731e-02,5950,0,-2.360e+01,-2.701e-01,2.977e-03,0.380,5.110e-02,
2016-01-01 11:10,239,16.763,0.635,-8.667,14.209,0.833,-16.242,1.714e+00,3.094e+00,5.827e-01,5.052e-02,-2.479e-04,5927,0,-3.379e-01,-5.471e-01,1.478e-05,0.610,5.003e-02,
2016-01-01 11:20,231,14.751,0.674,-9.118,11.458,0.592,-16.171,1.900e+00,2.570e+00,8.179e-01,3.263e-02,-4.293e-04,5903,0,-5.851e-01,-6.158e-01,2.142e-05,0.665,4.038e-02,
2016-01-01 11:30,227,12.758,0.703,-8.580,9.257,0.561,-15.987,2.058e+00,3.512e+00,6.684e-01,3.064e-02,1.362e-02,5950,0,1.854e+01,-6.705e-01,-5.969e-04,0.658,4.441e-02,
2016-01-01 11:40,234,13.432,0.753,-7.867,10.700,0.641,-16.058,2.143e+00,4.036e+00,8.477e-01,3.703e-02,6.884e-03,5882,0,9.376e+00,-7.688e-01,-2.459e-04,0.735,4.821e-02,
2016-01-01 11:50,239,13.341,0.674,-6.875,11.282,0.692,-15.946,2.160e+00,3.164e+00,8.526e-01,3.944e-02,1.193e-02,5907,0,1.624e+01,-6.158e-01,-5.938e-04,0.674,5.232e-02,
2016-01-01 12:00,242,17.641,0.862,-8.277,15.448,0.934,-15.749,2.918e+00,4.747e+00,9.510e-01,6.755e-02,-1.848e-02,5797,0,-2.514e+01,-1.006e+00,4.400e-04,0.861,5.325e-02,
2016-01-01 12:10,236,16.364,0.639,-9.090,13.448,0.667,-15.231,2.505e+00,4.416e+00,8.292e-01,7.736e-02,-1.070e-02,5942,0,-1.453e+01,-5.524e-01,6.227e-04,0.582,4.104e-02,
2016-01-01 12:20,237,13.601,0.654,-7.219,11.247,0.709,-14.682,4.506e+00,4.853e+00,1.224e+00,6.392e-02,-1.097e-02,5966,0,-1.487e+01,-5.771e-01,5.948e-04,0.605,5.301e-02,
2016-01-01 12:30,238,13.663,0.511,-7.143,11.225,0.661,-14.500,5.890e+00,6.804e+00,1.428e+00,5.854e-02,-2.223e-02,5967,0,-3.009e+01,-3.514e-01,2.531e-03,0.507,4.961e-02,
2016-01-01 12:40,242,16.449,0.594,-7.657,14.279,0.871,-14.690,6.195e+00,6.053e+00,2.010e+00,8.430e-02,-3.809e-02,5915,0,-5.161e+01,-4.762e-01,2.755e-03,0.374,5.374e-02,
2016-01-01 12:50,237,16.685,0.786,-8.850,13.821,0.674,-14.393,7.251e+00,6.029e+00,1.519e+00,1.135e-01,1.749e-02,5957,0,2.367e+01,-8.323e-01,-5.459e-04,0.752,4.105e-02,
2016-01-01 13:00,235,15.620,0.803,-8.631,12.478,0.789,-13.911,1.409e+01,8.813e+00,1.503e+00,7.642e-02,-1.208e-02,5946,0,-1.632e+01,-8.656e-01,3.539e-04,0.736,5.193e-02,
2016-01-01 13:10,237,14.834,0.631,-7.751,12.087,0.744,-13.997,1.015e+01,1.268e+01,1.950e+00,1.275e-01,-5.925e-02,5962,0,-8.006e+01,-5.356e-01,3.569e-03,0.611,5.174e-02,
2016-01-01 13:20,243,13.653,0.457,-6.020,11.735,0.730,-14.269,7.582e+00,1.265e+01,1.859e+00,1.274e-01,-1.243e-01,5949,0,-1.681e+02,-2.810e-01,1.975e-02,0.310,5.531e-02,
2016-01-01 13:30,233,12.451,0.797,-7.419,9.703,0.545,-14.345,3.980e+00,6.853e+00,1.147e+00,8.221e-02,-5.606e-02,5961,0,-7.586e+01,-8.562e-01,1.676e-03,0.795,4.458e-02,
2016-01-01 13:40,219,9.822,0.408,-6.907,5.562,0.525,-15.053,9.354e+00,2.016e+01,1.190e+00,2.051e+00,2.409e-02,5979,9,3.269e+01,-2.244e-01,-5.405e-03,0.071,5.915e-02,
2016-01-01 13:50,209,9.173,1.221,-7.042,3.920,0.577,-16.357,4.662e+00,1.860e+01,9.574e-01,1.139e+00,-9.106e-02,5991,0,-1.242e+02,-2.021e+00,7.652e-04,0.923,7.153e-02,
2016-01-01 14:00,226,10.821,0.553,-7.398,7.712,0.538,-15.931,3.179e+00,3.979e+00,4.541e-01,6.543e-02,-2.034e-02,5986,0,-2.770e+01,-4.143e-01,1.835e-03,0.541,5.031e-02,
2016-01-01 14:10,217,13.474,0.745,-10.264,7.781,0.621,-16.021,1.497e+01,8.088e+00,1.256e+00,3.853e-01,-6.579e-02,5934,0,-8.961e+01,-7.519e-01,2.430e-03,0.697,4.819e-02,
2016-01-01 14:20,216,13.700,0.868,-10.723,7.767,0.636,-16.502,1.081e+01,8.349e+00,1.472e+00,1.194e-01,4.682e-03,5858,0,6.389e+00,-1.024e+00,-1.093e-04,0.437,4.802e-02,
2016-01-01 14:30,204,12.749,0.596,-11.511,5.066,0.610,-16.760,3.887e+00,2.396e+00,7.695e-01,1.229e-01,-4.633e-02,5932,0,-6.328e+01,-4.831e-01,3.346e-03,0.058,4.844e-02,
2016-01-01 14:40,192,11.416,0.405,-10.961,2.429,0.375,-16.063,3.744e+00,2.904e+00,6.426e-01,1.908e-01,-1.117e-02,5945,0,-1.522e+01,-2.223e-01,2.568e-03,0.187,3.341e-02,
2016-01-01 14:50,181,12.298,0.766,-12.007,0.155,0.354,-15.743,7.769e+00,5.181e+00,9.600e-01,3.272e-01,-4.359e-02,5929,0,-5.930e+01,-7.943e-01,1.478e-03,0.523,2.945e-02,
2016-01-01 15:00,213,11.552,0.391,-9.301,5.947,0.458,-16.146,3.025e+00,1.038e+01,6.144e-01,5.349e-01,-1.042e-02,5925,0,-1.419e+01,-2.070e-01,2.666e-03,0.286,4.143e-02,
2016-01-01 15:20,219,11.789,0.632,-8.948,7.135,0.533,-16.147,2.661e+00,8.622e+00,6.909e-01,3.869e-02,6.210e-03,5912,1,8.462e+00,-5.411e-01,-3.761e-04,0.555,4.656e-02,
2016-01-01 15:30,240,18.287,0.835,-9.000,15.789,0.972,-16.285,2.624e+00,4.410e+00,1.177e+00,7.799e-02,1.291e-02,5592,0,1.761e+01,-9.455e-01,-3.390e-04,0.831,5.342e-02,
2016-01-01 15:40,237,20.155,0.749,-10.781,16.903,1.013,-16.403,2.643e+00,3.177e+00,1.007e+00,1.070e-01,3.506e-02,5419,0,4.782e+01,-7.607e-01,-1.277e-03,0.745,5.049e-02,
2016-01-01 15:50,236,20.370,0.797,-11.253,16.842,1.061,-16.509,2.895e+00,3.090e+00,1.099e+00,1.099e-01,2.388e-02,5331,0,3.258e+01,-8.635e-01,-7.198e-04,0.791,5.235e-02,
2016-01-01 16:00,232,20.687,0.810,-12.683,16.198,1.063,-16.187,2.913e+00,3.594e+00,9.546e-01,1.028e-01,1.041e-02,5299,0,1.418e+01,-8.905e-01,-2.986e-04,0.810,5.163e-02,
2016-01-01 16:10,229,19.888,0.666,-13.122,14.839,0.810,-16.241,2.285e+00,2.254e+00,7.627e-01,7.350e-02,1.191e-02,5537,0,1.623e+01,-6.011e-01,-6.164e-04,0.658,4.089e-02,
2016-01-01 16:20,229,19.432,0.681,-12.583,14.713,0.786,-16.186,1.905e+00,1.926e+00,7.125e-01,9.036e-02,-1.394e-02,5633,0,-1.900e+01,-6.284e-01,6.748e-04,0.664,4.060e-02,
2016-01-01 16:30,226,18.653,0.558,-12.936,13.313,0.696,-16.533,2.048e+00,2.644e+00,5.599e-01,1.086e-01,-1.283e-02,5744,0,-1.751e+01,-4.224e-01,1.131e-03,0.555,3.746e-02,
2016-01-01 16:40,224,18.555,0.480,-13.195,12.902,0.706,-16.712,2.556e+00,2.612e+00,5.258e-01,3.225e-01,-4.090e-02,5749,0,-5.585e+01,-3.132e-01,5.655e-03,0.472,3.826e-02,
2016-01-01 16:50,223,16.834,0.731,-12.307,11.314,0.785,-16.467,2.678e+00,3.631e+00,6.306e-01,3.478e-01,2.229e-02,5799,0,3.041e+01,-7.264e-01,-8.706e-04,0.704,4.690e-02,
2016-01-01 17:00,212,15.067,0.587,-12.627,7.966,0.755,-17.221,3.471e+00,2.353e+00,5.403e-01,1.873e-01,-1.361e-02,5843,5,-1.862e+01,-4.698e-01,1.029e-03,0.496,5.052e-02,
2016-01-01 17:10,208,14.415,0.431,-12.599,6.771,0.703,-17.277,2.548e+00,1.656e+00,3.006e-01,6.813e-02,-9.161e-03,5905,0,-1.254e+01,-2.527e-01,1.758e-03,0.402,4.914e-02,
2016-01-01 17:20,207,13.634,0.424,-11.967,6.227,0.735,-17.695,6.905e+00,1.422e+00,3.325e-01,9.995e-02,6.395e-03,5891,0,8.767e+00,-2.456e-01,-1.286e-03,0.328,5.444e-02,
2016-01-01 17:30,224,12.177,0.574,-8.483,8.278,0.681,-16.463,2.910e+00,8.885e+00,6.659e-01,4.816e-01,4.362e-03,5912,0,5.951e+00,-4.475e-01,-3.523e-04,0.533,5.736e-02,
2016-01-01 17:40,208,11.644,0.582,-10.165,5.337,0.572,-17.566,2.838e+00,2.410e+00,5.094e-01,4.036e-01,9.567e-02,5947,0,1.311e+02,-4.617e-01,-7.453e-03,0.562,4.982e-02,
2016-01-01 17:50,204,14.358,0.634,-12.843,5.675,0.740,-17.419,4.344e+00,1.108e+01,8.308e-01,4.647e-01,7.132e-02,5873,0,9.766e+01,-5.482e-01,-4.288e-03,0.580,5.262e-02,
2016-01-01 18:00,210,15.324,0.762,-12.978,7.547,0.731,-16.831,4.392e+00,9.029e+00,1.034e+00,1.686e-01,2.935e-02,5860,0,4.010e+01,-7.900e-01,-1.014e-03,0.652,4.864e-02,
2016-01-01 18:10,198,14.540,0.338,-13.285,4.283,0.598,-17.393,4.447e+00,1.826e+01,8.026e-01,5.169e-01,6.559e-02,5853,0,8.980e+01,-1.557e-01,-2.604e-02,0.310,4.284e-02,
2016-01-01 18:20,219,14.852,,-11.131,8.921,0.676,-16.870,4.621e+00,1.980e+01,9.081e-01,4.478e-01,1.118e-02,5858,0,1.528e+01,,,,4.735e-02,
2016-01-01 18:30,226,18.255,0.581,-12.488,13.099,0.772,-16.809,3.554e+00,4.606e+00,7.743e-01,1.337e-01,1.626e-02,5729,0,2.221e+01,-4.592e-01,-1.268e-03,0.568,4.263e-02,
2016-01-01 18:40,237,19.817,0.685,-10.600,16.524,1.069,-16.791,3.975e+00,4.694e+00,9.766e-01,1.007e-01,2.721e-02,5494,0,3.716e+01,-6.382e-01,-1.294e-03,0.679,5.438e-02,
2016-01-01 18:50,244,21.782,0.837,-9.604,19.405,1.238,-17.080,2.839e+00,4.744e+00,1.394e+00,1.161e-01,3.663e-02,5405,0,5.009e+01,-9.524e-01,-9.586e-04,0.831,5.714e-02,
2016-01-01 19:00,244,22.326,0.822,-9.593,19.998,1.365,-17.130,3.363e+00,7.010e+00,1.404e+00,1.882e-01,3.924e-02,5200,0,5.368e+01,-9.191e-01,-1.084e-03,0.818,6.145e-02,
2016-01-01 19:10,242,22.517,0.787,-10.424,19.810,1.306,-17.556,3.167e+00,3.831e+00,1.381e+00,1.682e-01,3.673e-02,5295,0,5.032e+01,-8.444e-01,-1.157e-03,0.785,5.826e-02,
2016-01-01 19:20,244,20.375,0.828,-8.999,18.124,1.284,-17.708,3.199e+00,6.024e+00,1.259e+00,1.313e-01,6.365e-02,5457,0,8.726e+01,-9.362e-01,-1.720e-03,0.828,6.339e-02,
2016-01-01 19:30,245,24.653,0.934,-10.518,22.158,1.484,-18.193,2.974e+00,6.209e+00,1.381e+00,1.498e-01,6.478e-02,5071,0,8.898e+01,-1.193e+00,-1.223e-03,0.934,6.042e-02,
2016-01-01 19:40,245,24.954,0.913,-10.447,22.529,1.522,-18.396,3.247e+00,6.357e+00,1.282e+00,1.467e-01,6.347e-02,5104,0,8.724e+01,-1.141e+00,-1.283e-03,0.913,6.120e-02,
2016-01-01 19:50,245,26.363,0.806,-11.036,23.801,1.540,-18.490,2.903e+00,4.518e+00,1.502e+00,1.737e-01,4.301e-02,4722,0,5.914e+01,-8.899e-01,-1.263e-03,0.782,5.862e-02,
2016-01-01 20:00,246,25.152,0.865,-10.202,22.853,1.596,-17.833,2.499e+00,4.185e+00,1.417e+00,1.604e-01,1.934e-02,4805,0,2.653e+01,-1.022e+00,-4.590e-04,0.855,6.370e-02,
2016-01-01 20:10,244,23.989,0.816,-10.537,21.413,1.330,-17.008,3.143e+00,8.063e+00,1.378e+00,1.426e-01,2.620e-02,5029,1,3.581e+01,-9.068e-01,-7.374e-04,0.811,5.569e-02,
2016-01-01 20:20,240,19.687,0.803,-9.757,16.972,1.062,-16.581,3.412e+00,6.222e+00,8.497e-01,8.895e-02,2.853e-02,5588,0,3.894e+01,-8.748e-01,-8.441e-04,0.794,5.422e-02,
2016-01-01 20:30,240,19.082,0.715,-9.357,16.479,0.886,-16.491,2.855e+00,8.834e+00,1.307e+00,8.452e-02,9.620e-03,5561,0,1.313e+01,-6.950e-01,-4.016e-04,0.695,4.674e-02,
2016-01-01 20:40,243,22.118,0.695,-10.116,19.504,1.283,-16.480,3.317e+00,7.110e+00,1.403e+00,1.728e-01,2.166e-02,5250,0,2.956e+01,-6.561e-01,-9.858e-04,0.675,5.835e-02,
2016-01-01 20:50,246,24.843,0.722,-10.154,22.513,1.642,-17.128,2.832e+00,6.669e+00,1.374e+00,1.939e-01,1.641e-02,4983,0,2.245e+01,-7.103e-01,-6.673e-04,0.722,6.640e-02,
2016-01-01 21:00,247,24.922,0.793,-9.879,22.744,1.558,-17.399,2.471e+00,4.262e+00,1.339e+00,1.201e-01,1.607e-02,5107,0,2.201e+01,-8.577e-01,-4.938e-04,0.793,6.274e-02,
2016-01-01 21:10,244,23.587,0.748,-10.346,21.060,1.407,-17.370,2.626e+00,5.037e+00,1.323e+00,1.252e-01,3.629e-02,5198,0,4.969e+01,-7.622e-01,-1.330e-03,0.741,5.990e-02,
2016-01-01 21:20,247,25.198,0.774,-9.929,23.035,1.556,-17.130,1.841e+00,5.240e+00,1.213e+00,1.249e-01,1.842e-02,5028,0,2.520e+01,-8.148e-01,-6.095e-04,0.741,6.195e-02,
2016-01-01 21:30,248,26.883,0.817,-9.906,24.872,1.645,-16.448,2.033e+00,4.025e+00,1.366e+00,1.766e-01,1.216e-03,4901,0,1.658e+00,-9.064e-01,-3.405e-05,0.756,6.136e-02,
2016-01-01 21:40,247,26.183,0.820,-10.208,23.986,1.602,-16.615,2.178e+00,3.803e+00,1.346e+00,1.789e-01,4.088e-02,4955,2,5.580e+01,-9.131e-01,-1.135e-03,0.809,6.139e-02,
2016-01-01 21:50,244,25.171,0.822,-10.870,22.577,1.416,-16.896,2.561e+00,4.732e+00,1.254e+00,1.558e-01,5.236e-02,4928,2,7.156e+01,-9.196e-01,-1.442e-03,0.815,5.647e-02,
2016-01-01 22:00,246,24.871,0.857,-10.138,22.561,1.643,-16.997,2.802e+00,4.192e+00,1.244e+00,1.303e-01,3.821e-02,4819,0,5.223e+01,-9.983e-01,-9.309e-04,0.852,6.633e-02,
2016-01-01 22:10,248,25.912,0.724,-9.563,23.965,1.610,-16.891,1.940e+00,3.780e+00,1.317e+00,1.431e-01,3.201e-03,4884,0,4.374e+00,-7.118e-01,-1.294e-04,0.642,6.230e-02,
2016-01-01 22:20,248,25.267,0.775,-9.618,23.244,1.596,-16.574,1.954e+00,3.518e+00,1.237e+00,1.228e-01,2.717e-02,4886,0,3.708e+01,-8.166e-01,-8.911e-04,0.755,6.335e-02,
2016-01-01 22:30,246,24.935,0.940,-10.136,22.646,1.559,-16.228,2.554e+00,5.051e+00,1.455e+00,1.444e-01,3.996e-02,4866,1,5.446e+01,-1.199e+00,-7.343e-04,0.935,6.274e-02,
2016-01-01 22:40,247,23.565,0.759,-9.038,21.637,1.450,-15.868,1.988e+00,4.711e+00,1.349e+00,1.004e-01,1.231e-02,5359,0,1.675e+01,-7.811e-01,-4.286e-04,0.759,6.174e-02,
2016-01-01 22:50,247,20.270,0.585,-8.030,18.475,1.215,-15.795,1.796e+00,7.085e+00,1.364e+00,9.927e-02,-3.033e-03,5499,0,-4.127e+00,-4.634e-01,2.310e-04,0.580,6.026e-02,
2016-01-01 23:00,245,19.390,0.734,-8.000,17.540,1.148,-15.491,1.906e+00,5.447e+00,1.071e+00,9.362e-02,1.285e-02,5630,0,1.747e+01,-7.286e-01,-4.950e-04,0.734,5.949e-02,
2016-01-01 23:10,244,19.915,0.706,-8.670,17.788,1.138,-15.207,2.512e+00,4.940e+00,1.141e+00,7.916e-02,-1.636e-03,5636,1,-2.221e+00,-6.741e-01,7.061e-05,0.703,5.744e-02,
2016-01-01 23:20,244,20.325,0.623,-8.740,18.225,1.176,-15.244,2.078e+00,6.005e+00,1.099e+00,8.470e-02,-1.086e-03,5646,0,-1.475e+00,-5.241e-01,6.842e-05,0.623,5.810e-02,
2016-01-01 23:30,242,19.551,0.678,-9.025,17.227,1.027,-15.811,2.060e+00,3.641e+00,8.176e-01,4.446e-01,-5.539e-03,5670,1,-7.538e+00,-6.216e-01,2.716e-04,0.673,5.278e-02,
2016-01-01 23:40,244,20.432,0.662,-8.768,18.372,1.080,-16.166,1.317e+00,2.039e+00,7.515e-01,1.223e-01,6.385e-03,5735,0,8.701e+00,-5.934e-01,-3.368e-04,0.659,5.298e-02,
2016-01-01 23:50,241,19.818,0.531,-9.429,17.339,1.032,-16.219,1.456e+00,2.242e+00,5.745e-01,1.146e-01,-4.210e-03,5757,0,-5.739e+00,-3.823e-01,4.296e-04,0.529,5.226e-02,
2016-01-02 00:00,241,19.064,0.636,-9.284,16.559,0.853,-15.226,1.568e+00,2.187e+00,7.188e-01,1.566e-01,-4.506e-02,5801,0,-6.118e+01,-5.462e-01,2.667e-03,0.629,4.492e-02,
2016-01-02 00:10,239,17.986,0.649,-9.255,15.318,0.853,-15.019,1.913e+00,2.472e+00,6.001e-01,5.515e-02,8.832e-03,5817,0,1.198e+01,-5.681e-01,-4.918e-04,0.629,4.761e-02,
2016-01-02 00:20,238,18.842,0.717,-9.930,15.900,0.910,-15.182,2.352e+00,2.941e+00,7.049e-01,6.764e-02,1.939e-02,5757,0,2.632e+01,-6.941e-01,-8.005e-04,0.703,4.852e-02,
2016-01-02 00:30,241,18.829,0.647,-9.029,16.402,1.011,-15.479,2.321e+00,3.425e+00,8.634e-01,7.981e-02,4.023e-03,5594,0,5.468e+00,-5.661e-01,-2.262e-04,0.647,5.395e-02,
2016-01-02 00:40,237,17.811,0.671,-9.521,14.912,0.939,-15.119,2.146e+00,3.652e+00,7.913e-01,1.020e-01,2.271e-03,5741,0,3.082e+00,-6.088e-01,-1.141e-04,0.671,5.304e-02,
2016-01-02 00:50,234,18.234,0.580,-10.561,14.776,0.806,-15.357,1.766e+00,1.907e+00,5.498e-01,1.575e-01,-8.570e-03,5828,0,-1.164e+01,-4.546e-01,6.688e-04,0.558,4.435e-02,
2016-01-02 01:00,233,17.682,0.573,-10.556,14.091,0.747,-15.825,1.605e+00,1.974e+00,5.879e-01,7.836e-02,3.547e-05,5844,0,4.827e-02,-4.448e-01,-2.873e-06,0.554,4.239e-02,
2016-01-02 01:10,240,19.086,0.664,-9.412,16.488,0.924,-15.086,2.204e+00,2.840e+00,6.816e-01,1.279e-01,2.002e-02,5789,0,2.717e+01,-5.961e-01,-1.038e-03,0.663,4.865e-02,
2016-01-02 01:20,246,20.217,0.595,-8.251,18.363,1.177,-15.366,1.461e+00,2.961e+00,7.657e-01,3.892e-01,1.406e-02,5710,0,1.910e+01,-4.789e-01,-1.015e-03,0.586,5.842e-02,
2016-01-02 01:30,248,20.075,0.573,-7.446,18.538,1.157,-15.409,1.589e+00,2.919e+00,9.061e-01,9.784e-02,-1.262e-02,5744,0,-1.714e+01,-4.442e-01,1.020e-03,0.538,5.783e-02,